User: anonymous   Login
Location: Vale
(35.4830°N, 81.3830°W)
Time: 23:35:05
(UTC-04:00)
Language:

Cosmos 2237 Rocket - Orbit

View from above orbital plane
View from above orbital plane
View from above satellite
View from above satellite

Ground track
Ground track

The orbit data is extracted from the following two-line orbital elements,

1 22566U 93016B   16126.43469630 -.00000210  00000-0 -84098-4 0  9999
2 22566  71.0085 202.8056 0009271  20.9406 339.2094 14.14928631193593
Epoch (UTC): 05 May 2016 10:25:57
Eccentricity: 0.0009271
inclination: 71.0085°
perigee height: 836 km
apogee height: 849 km
right ascension of ascending node: 202.8056°
argument of perigee: 20.9406°
revolutions per day: 14.14928631
mean anomaly at epoch: 339.2094°
orbit number at epoch: 19359

The dashed part of the orbit path shows where the satellite is in the earth's shadow,  

DLR